RH
9 11 12 12 12 12 10 8 7 7 6 6 6 6 6 6 6 6 6 6 6 6 6 6 6 6 6 6 6 6 6 7 7 7 7 7 7 7 7 7 7 7 7 7 7 7 7 7 7 7 7 7 7 7 7 7 7 7 8 8 8 9 10 12 13 14 16 17 17 17 17 16 16 16 15 12 11 10 10 10 10 10 10 10 10 9 10 9 9 9 9 10 10 10 11 11 11 11 11 11 11 11 11
7 8 9 9 10 10 9 9 9 8 8 8 8 7 7 7 7 7 7 7 7 7 7 7 7 7 7 7 6 7 7 6 7 7 7 7 6 6 6 6 6 6 7 7 7 7 7 7 7 7 7 7 7 7 7 7 8 8 8 8 8 9 9 10 11 12 13 14 15 15 15 15 14 14 14 13 13 12 12 11 11 11 11 11 11 11 11 10 10 10 10 10 10 10 11 11 11 11 11 11 11 11 11
8 9 9 9 10 10 10 10 10 10 10 10 10 9 9 9 9 8 8 8 8 8 8 7 7 7 7 7 7 7 7 7 7 7 7 7 7 7 6 6 6 7 6 6 7 7 7 7 7 7 7 7 7 8 8 8 8 8 8 9 9 9 9 10 10 11 12 12 13 13 13 13 13 13 13 13 13 13 13 12 12 12 11 11 11 11 11 11 11 11 11 11 11 11 11 11 11 11 11 11 11 11 11
10 10 11 11 11 11 11 12 11 11 12 11 11 11 11 11 11 10 10 10 10 10 9 9 9 9 8 8 8 8 8 8 8 8 8 8 7 7 7 7 7 7 7 7 7 7 7 7 7 7 7 8 8 8 8 8 8 9 9 9 9 9 10 10 10 10 11 11 12 12 13 13 13 13 13 12 12 12 13 13 12 12 12 12 12 12 12 12 12 12 12 11 12 12 11 11 11 11 11 11 11 11 11
10 11 11 11 11 12 12 12 12 12 12 12 12 12 12 12 12 12 12 11 11 11 11 10 10 10 10 10 10 10 9 9 9 9 9 9 9 9 8 8 8 8 8 8 8 8 8 8 8 8 8 8 9 9 9 9 9 9 9 9 10 10 10 10 11 11 11 12 13 13 13 13 13 13 13 13 13 13 12 13 13 12 12 12 12 12 12 12 12 12 12 12 11 11 11 11 11 11 11 11 11 11 11
11 11 12 12 12 12 12 12 12 12 12 13 13 13 13 13 13 13 13 13 13 12 12 12 11 11 11 11 11 11 11 11 11 10 10 10 10 10 10 9 9 9 9 9 9 9 9 9 9 9 9 9 9 10 10 10 10 10 10 10 10 11 11 11 11 11 12 13 13 14 14 14 14 14 14 14 13 13 13 13 13 13 13 13 12 12 12 13 13 12 13 12 12 11 11 11 11 11 11 11 11 11 11
12 12 13 13 13 13 13 13 13 13 13 14 14 14 14 14 15 15 15 14 14 14 14 13 13 12 12 12 12 11 11 11 11 11 11 11 11 11 11 11 10 10 10 10 10 10 9 10 10 10 10 10 10 10 10 10 11 11 11 11 11 11 11 11 11 12 12 13 13 14 14 14 14 14 14 14 14 14 14 13 13 13 13 13 12 12 12 12 12 12 12 12 12 12 11 11 11 11 11 11 11 11 11
14 14 15 15 15 16 16 16 16 16 16 16 16 16 16 16 16 16 16 16 16 16 16 15 15 14 14 13 13 13 12 12 12 12 12 12 12 12 11 11 11 11 11 11 11 10 10 10 10 11 11 11 11 11 11 11 11 11 11 11 11 11 12 12 12 12 12 13 13 14 15 15 14 14 14 14 14 13 13 13 14 14 14 13 13 13 13 12 12 12 12 12 12 12 12 12 12 11 11 11 11 11 11
16 16 17 17 17 18 18 18 18 19 18 18 18 18 18 17 17 17 17 17 18 18 17 17 17 16 16 16 15 15 14 14 13 13 13 13 13 12 12 12 12 12 12 12 11 11 11 11 11 11 11 11 11 11 11 11 11 11 11 11 11 11 12 12 12 12 12 13 13 14 15 15 15 14 14 14 13 13 13 13 13 13 13 13 13 13 13 13 13 12 12 12 12 12 12 12 12 12 12 12 12 11 11
17 17 18 18 18 19 20 20 20 20 21 21 20 20 20 19 19 18 18 19 19 19 19 19 19 19 19 18 18 17 17 16 16 15 15 14 14 14 14 13 13 13 13 12 12 12 12 12 12 12 12 12 12 12 12 12 12 12 12 12 12 12 12 12 12 12 12 13 13 14 15 15 15 15 14 14 14 13 13 13 13 13 13 13 13 13 13 13 13 13 12 12 12 12 12 12 12 12 12 12 12 12 12
17 17 18 18 19 19 20 20 21 22 22 22 22 22 22 21 21 20 20 21 21 21 21 22 22 21 21 20 20 19 19 18 18 17 17 16 16 15 15 15 14 14 14 14 13 13 13 13 13 13 12 12 12 12 12 12 12 12 12 12 12 12 12 12 12 12 13 13 13 14 14 15 15 15 14 14 14 14 14 13 13 13 12 12 12 12 12 12 13 13 12 12 12 12 12 12 12 12 12 12 12 12 12
16 17 18 18 19 20 21 21 22 22 23 23 23 23 23 23 23 23 24 24 24 24 25 25 25 24 23 22 22 21 21 20 20 19 19 18 18 17 17 16 16 15 15 15 14 14 14 14 14 14 13 13 13 13 13 13 13 13 13 13 13 13 13 13 13 13 14 14 14 14 15 15 15 15 14 14 14 14 14 14 14 13 13 12 12 12 12 12 12 12 12 12 12 12 11 11 11 11 12 12 12 12 12
16 17 18 19 20 20 21 21 22 22 23 23 23 24 24 24 25 25 26 26 26 26 26 27 26 25 24 23 22 22 21 21 21 21 20 20 19 19 18 18 17 17 16 16 15 15 15 15 15 15 14 14 14 14 13 13 13 13 13 13 13 13 14 14 14 14 14 15 15 15 16 15 15 15 15 14 14 15 15 15 15 14 14 13 13 13 12 12 12 12 13 13 12 12 12 11 11 11 11 11 11 11 12
17 18 19 20 20 21 21 21 22 22 23 23 23 23 24 24 25 25 25 26 26 26 26 26 26 25 23 22 22 22 22 21 21 21 21 21 20 20 20 19 19 18 18 17 17 17 17 16 16 16 15 15 15 15 14 14 14 14 14 14 14 14 14 14 15 15 15 16 16 16 16 16 16 16 15 15 15 15 15 16 16 15 15 14 14 14 13 13 13 13 13 13 13 13 12 12 12 12 11 11 11 11 11
18 19 20 20 20 21 21 22 22 23 23 23 23 23 23 23 24 24 24 25 25 25 25 25 25 23 22 22 22 22 21 21 21 21 21 20 20 20 20 20 20 19 19 19 19 19 18 18 17 17 17 16 16 16 16 15 15 15 14 14 14 14 15 15 15 15 16 16 16 16 16 16 16 16 16 16 16 16 16 16 16 16 16 15 15 15 15 14 14 14 14 14 14 14 14 13 13 13 12 12 12 12 12
20 21 21 21 21 21 21 22 22 23 23 24 24 23 23 23 23 24 24 24 24 24 24 24 23 23 22 22 22 22 22 21 21 21 21 20 20 20 20 20 19 19 19 19 19 20 20 19 19 18 18 18 17 17 17 17 16 16 15 15 15 15 15 15 15 16 16 16 16 17 17 17 16 16 16 16 16 16 16 17 16 16 16 16 16 16 16 15 15 15 15 15 15 15 15 15 15 14 14 13 13 13 12
22 21 21 21 21 21 21 22 22 23 23 24 24 23 23 23 23 24 24 24 24 24 23 23 23 23 23 22 22 22 22 22 22 22 21 21 20 20 20 19 19 19 19 19 19 19 19 19 19 19 18 19 19 18 18 17 17 16 16 16 16 16 16 16 16 16 16 16 16 17 17 17 16 16 16 16 16 16 16 16 16 16 16 16 16 16 16 16 16 16 16 16 16 16 17 17 18 17 17 16 15 14 14
23 23 23 23 22 22 22 22 22 23 23 23 23 23 23 22 23 23 24 25 24 24 24 24 23 23 23 23 23 23 23 23 23 23 22 22 21 21 20 20 19 19 20 20 20 20 20 20 19 19 19 19 19 19 18 18 17 17 16 16 16 16 16 16 16 16 16 16 17 16 17 16 16 16 16 16 16 16 16 16 16 16 16 17 17 17 17 17 17 17 17 17 17 17 17 18 19 20 21 21 20 18 17
25 26 26 25 24 24 23 23 23 23 24 24 24 24 24 24 24 24 25 25 25 24 24 24 24 24 24 24 24 24 25 24 24 24 23 23 22 21 20 20 20 20 20 21 20 20 20 20 20 20 20 20 19 19 19 19 18 18 17 17 17 17 16 17 16 16 16 16 17 17 17 16 16 16 16 16 16 16 16 16 16 16 17 17 17 17 18 18 18 18 18 18 18 18 19 19 19 20 22 24 24 23 22
28 28 29 28 28 27 26 26 26 26 26 25 26 27 28 27 27 26 27 27 27 26 26 26 27 27 27 27 27 27 27 27 26 25 25 24 24 22 21 20 20 20 21 21 21 20 20 20 20 20 20 20 20 20 20 19 19 19 18 18 18 18 17 17 17 17 17 17 17 17 17 17 17 17 17 16 16 16 16 16 17 17 17 17 17 18 18 18 19 19 19 20 20 20 20 21 21 21 22 25 26 26 26
30 30 30 31 30 30 30 29 29 29 29 29 29 30 31 31 30 29 28 29 30 29 29 29 30 31 31 30 30 30 30 30 29 28 27 26 26 25 23 22 21 22 22 22 22 21 21 20 20 20 20 20 20 20 20 20 20 19 19 19 19 18 18 18 18 18 18 18 18 17 17 17 17 17 17 17 17 17 17 17 17 17 18 18 18 18 19 19 20 20 20 21 22 22 23 23 24 24 24 25 26 26 26
31 31 30 32 32 32 31 32 32 32 32 32 32 32 32 32 32 32 31 31 32 32 32 32 33 33 32 32 31 31 31 31 31 30 28 28 27 26 25 24 24 24 24 24 23 22 22 21 21 21 21 21 21 21 21 20 20 20 20 19 19 19 19 18 18 18 18 18 18 18 18 18 18 18 18 18 18 18 18 18 18 18 19 19 19 19 20 21 22 23 22 22 23 24 25 25 26 27 26 26 26 27 27
31 31 31 32 32 32 32 32 32 32 33 33 33 33 33 33 33 33 33 32 33 33 33 33 33 32 31 31 30 30 31 32 31 30 29 28 27 27 26 26 26 26 25 25 25 24 23 23 23 22 22 22 22 22 22 21 21 21 20 20 20 19 19 19 19 19 18 18 18 18 18 18 18 18 18 18 18 18 19 19 19 20 20 20 20 21 22 24 26 26 25 25 25 25 26 27 29 29 28 28 28 28 29
31 31 31 31 31 32 32 32 32 32 33 33 33 32 32 32 32 32 33 33 33 32 32 31 31 30 29 29 29 30 32 32 30 28 27 27 27 26 26 26 26 26 26 26 25 24 24 23 23 23 23 23 22 22 22 22 21 21 21 21 20 20 20 20 19 19 19 19 19 19 18 18 18 18 18 18 19 19 19 19 19 20 20 21 22 23 23 25 27 28 29 29 29 29 29 30 30 31 31 30 31 31 31
30 31 31 31 31 31 32 32 32 32 32 32 31 31 30 30 31 31 31 31 31 29 28 27 28 28 27 28 28 29 31 31 28 25 23 24 24 25 25 24 24 24 25 25 24 23 23 23 23 23 23 22 22 22 22 22 21 21 21 21 21 21 21 20 20 20 20 20 20 20 20 20 20 19 19 19 19 20 20 20 20 20 20 21 22 24 25 27 28 29 30 31 31 32 31 32 32 32 32 32 32 32 32
31 31 31 31 32 32 32 32 32 31 30 30 29 29 28 29 30 30 29 28 27 26 25 26 28 30 30 29 29 28 29 28 25 21 20 21 21 22 22 22 22 22 23 22 22 22 22 22 22 22 22 22 22 22 22 22 22 22 22 22 22 22 22 22 22 22 22 22 22 21 21 21 21 21 21 21 21 21 21 21 21 21 21 22 23 24 25 26 28 29 30 31 32 33 33 33 33 33 33 33 33 32 32
32 32 32 32 32 33 33 32 31 29 28 28 28 28 28 29 30 30 27 26 25 25 26 29 30 30 29 28 27 26 27 24 22 19 19 19 19 20 20 20 20 20 21 21 21 21 21 21 21 21 22 22 22 22 22 22 22 22 22 22 22 22 23 23 23 23 23 23 23 22 23 23 22 22 22 22 22 22 22 22 22 22 23 23 23 24 25 26 27 28 30 31 31 32 34 33 33 33 33 33 33 33 33
32 32 31 32 32 33 32 31 29 28 27 27 28 28 28 30 31 31 29 27 27 27 28 30 30 29 27 25 24 24 25 22 20 19 19 19 19 19 19 19 20 20 20 20 20 20 20 21 21 21 21 21 21 21 21 21 21 21 21 22 22 22 22 22 22 22 22 22 22 22 22 22 22 22 22 22 22 22 22 22 22 22 23 23 24 24 25 25 26 27 29 30 32 34 35 35 35 34 34 34 34 33 33
30 30 30 31 32 31 31 30 29 27 26 28 29 30 30 31 31 31 30 29 29 29 28 30 29 28 27 25 24 23 23 21 20 20 20 20 20 20 19 19 19 19 19 19 19 19 19 19 19 19 19 19 19 19 18 18 18 18 18 18 19 19 19 19 19 19 20 20 20 20 20 20 20 20 20 20 20 21 21 21 21 21 21 22 22 23 24 24 25 26 27 28 30 32 34 35 36 36 36 36 36 36 35
30 30 30 30 30 29 28 29 28 28 27 30 31 31 32 31 31 30 29 29 29 29 29 30 30 30 28 26 24 23 21 19 19 19 19 19 19 19 18 18 17 17 17 16 16 16 16 16 15 15 15 15 15 15 15 14 15 15 15 15 15 15 15 16 16 16 16 16 17 17 17 17 18 18 18 18 19 19 19 19 19 20 20 21 21 22 22 23 23 23 24 26 27 28 29 31 34 35 36 37 37 37 37
30 29 30 30 30 29 28 28 28 28 28 30 31 30 30 28 28 28 27 27 27 26 26 27 27 26 25 24 23 21 19 18 17 17 17 17 17 17 16 15 15 15 14 14 14 13 13 13 13 12 12 13 12 12 12 12 12 12 12 13 13 13 13 13 14 14 14 14 15 15 15 15 16 16 16 17 17 17 18 18 19 19 19 20 20 21 21 21 22 22 23 23 24 26 26 28 30 31 33 34 35 36 37
29 29 31 31 31 30 26 27 28 29 29 28 29 29 28 27 26 25 25 24 24 23 22 21 21 21 22 21 20 18 16 16 15 15 14 14 14 14 14 13 13 13 13 12 12 12 12 11 11 11 11 12 11 11 11 11 12 12 12 12 12 12 13 13 13 13 13 14 14 14 14 15 15 15 16 16 16 16 17 17 17 18 18 18 18 19 19 19 20 20 21 21 22 23 23 25 26 28 29 31 32 34 34
28 29 29 29 27 26 26 27 27 27 28 26 26 26 26 25 24 23 21 20 19 19 17 17 18 18 18 18 16 15 14 13 13 13 13 12 12 12 12 12 12 12 12 11 11 11 11 11 11 11 11 11 11 11 11 11 11 11 11 11 12 12 12 12 12 13 13 13 13 13 13 14 14 14 14 14 14 15 15 15 15 15 16 16 16 16 17 17 17 17 18 18 19 19 20 21 22 23 24 26 27 28 29
28 28 28 27 26 26 27 27 26 26 25 24 23 23 22 21 20 18 17 16 16 15 14 14 15 15 15 15 14 13 12 12 12 12 12 11 11 11 11 11 11 11 11 11 11 11 11 11 11 11 11 11 11 11 11 11 11 11 11 11 11 11 11 12 12 12 12 12 12 12 12 13 13 13 13 13 13 13 13 13 14 14 14 14 14 14 15 15 15 15 16 16 16 17 17 18 18 19 20 21 23 24 25
28 27 27 26 26 26 25 24 24 23 21 21 19 18 17 16 15 15 14 14 14 14 14 13 13 13 13 12 12 12 12 12 11 11 11 11 11 11 11 11 11 11 11 11 11 11 11 11 11 11 11 11 11 11 11 11 10 10 10 10 11 11 11 11 11 11 12 12 12 12 12 12 12 12 12 12 13 13 13 13 13 13 14 14 14 14 14 14 15 15 15 15 16 16 16 16 17 17 18 18 19 20 21
27 26 25 24 23 22 21 20 19 18 17 16 15 14 14 14 14 13 13 13 13 14 14 13 12 12 12 12 12 12 12 12 12 11 11 11 11 11 11 11 11 11 11 11 11 11 11 11 11 10 10 10 10 10 10 10 10 10 10 10 11 11 11 11 11 11 11 11 11 11 11 12 12 12 12 13 13 13 13 13 14 14 14 14 14 15 15 15 15 15 16 16 16 16 16 16 17 17 17 17 18 18 19
25 24 23 22 21 21 20 18 17 17 16 15 14 14 14 13 13 13 13 13 13 13 13 12 12 12 12 12 12 12 12 12 12 12 12 12 11 11 11 11 11 11 11 11 11 10 10 10 10 10 10 10 10 10 10 10 10 10 10 11 11 11 11 11 11 11 11 11 11 11 11 11 11 12 12 12 13 13 13 14 14 14 14 15 15 15 15 15 15 15 16 16 16 16 16 16 17 17 17 18 18 18 18
23 22 21 21 20 20 20 18 16 16 15 14 14 14 13 13 13 13 13 13 13 13 13 13 13 12 12 12 12 12 12 12 12 12 12 12 12 12 11 11 11 11 11 11 11 11 10 10 10 10 10 10 10 10 10 10 10 11 11 11 11 11 11 10 10 10 10 10 10 10 10 10 11 11 11 11 12 12 13 13 13 14 14 14 14 15 15 15 15 15 15 15 15 16 16 16 16 16 17 17 17 18 18
23 23 21 21 20 19 17 16 15 15 14 14 14 14 14 14 13 13 13 13 13 13 13 13 13 13 13 13 13 12 12 12 12 12 12 12 12 12 12 12 11 11 11 11 11 11 10 10 10 10 10 10 10 10 10 10 11 11 11 11 11 11 10 10 10 10 10 10 10 10 10 10 10 10 10 10 11 11 11 12 12 12 13 13 13 14 14 14 14 14 15 15 15 15 15 15 15 15 15 16 16 17 17
24 23 21 20 19 17 16 16 15 15 14 14 14 14 14 14 14 14 14 14 14 14 13 14 13 13 13 13 13 13 13 13 13 13 13 13 12 12 12 12 12 12 11 11 11 11 11 11 11 11 11 10 10 11 11 11 11 11 11 11 11 11 11 11 11 10 10 10 10 10 10 10 10 10 10 10 10 10 10 10 10 11 11 11 11 12 12 12 12 13 13 13 14 14 14 14 14 14 14 14 14 15 15
23 22 20 19 18 18 17 16 16 15 15 14 14 14 14 14 14 14 14 14 14 14 14 14 14 14 14 13 13 13 13 13 13 13 13 13 13 13 12 12 12 12 12 11 11 11 11 11 11 11 11 11 11 11 12 12 11 11 11 11 11 11 11 11 11 11 11 10 10 10 10 10 10 10 10 10 10 10 10 10 10 10 10 10 10 10 10 10 10 11 11 11 12 12 12 13 13 13 14 14 14 14 14
22 22 21 20 20 19 18 17 17 16 15 15 15 15 15 14 15 15 15 15 15 15 14 15 14 14 14 14 14 14 14 14 14 14 13 13 13 13 13 12 12 12 12 12 12 12 12 12 12 12 12 12 12 12 12 12 11 11 11 11 11 11 11 11 11 11 11 11 10 10 10 10 10 10 10 10 10 10 10 10 10 10 10 10 10 10 10 9 9 9 9 10 10 10 11 11 12 12 12 13 13 13 14
23 23 22 22 21 20 20 19 18 17 17 16 16 16 15 16 16 15 16 16 16 16 15 15 15 15 15 15 15 14 14 14 14 14 14 13 13 13 13 13 13 12 13 12 12 12 12 12 12 12 12 12 12 12 12 12 12 11 11 11 11 11 11 11 11 11 11 11 11 10 10 10 10 10 10 10 11 11 11 11 11 11 11 11 11 11 11 11 10 10 10 10 10 10 10 10 11 11 12 12 13 13 14
23 23 23 23 23 22 21 21 20 19 18 18 17 17 17 17 16 16 16 16 16 16 16 16 16 16 16 15 15 15 15 15 14 14 14 13 13 13 13 13 13 13 13 13 13 13 13 13 13 13 13 13 13 13 12 12 12 12 12 12 12 12 12 11 11 11 11 11 11 11 11 11 11 12 11 12 12 12 12 12 12 12 12 12 12 12 12 12 12 12 12 12 12 11 11 11 11 11 12 12 13 14 14
24 25 25 24 24 24 23 23 22 21 20 20 19 19 18 18 18 18 17 17 17 17 17 17 16 16 16 16 15 15 15 15 15 14 14 14 14 14 14 14 13 13 13 13 13 14 13 13 13 13 13 13 13 13 13 13 12 12 12 12 12 12 12 12 12 12 12 13 13 13 13 13 13 13 13 13 13 13 13 13 13 12 12 12 12 12 12 12 12 12 12 12 12 12 12 12 12 12 12 12 12 13 14
26 26 26 26 26 26 25 25 24 23 23 22 21 21 20 20 19 19 19 19 18 18 18 18 17 17 16 16 16 16 15 15 15 15 14 14 14 14 14 14 14 14 14 14 14 14 14 14 14 14 14 14 14 14 14 14 13 13 13 13 13 13 13 14 14 14 14 14 15 15 15 15 15 15 15 14 14 14 14 13 13 13 13 12 12 12 12 11 11 11 11 11 11 11 11 11 11 11 11 11 11 12 12
26 27 27 27 27 27 27 27 26 26 25 24 24 23 22 22 21 21 20 20 20 19 19 19 18 18 17 16 16 16 15 15 15 15 15 15 15 15 15 15 15 15 15 15 15 15 15 15 15 15 15 15 15 15 15 15 15 14 14 15 15 15 16 16 16 17 17 17 17 16 16 16 16 16 15 15 15 15 14 14 14 14 13 13 13 13 13 12 12 12 12 12 12 12 12 12 12 12 12 12 12 11 11
27 27 28 28 28 29 29 29 28 28 27 27 26 25 25 24 24 23 23 22 22 21 21 20 19 19 18 18 17 16 16 16 16 16 15 15 16 16 16 16 16 16 17 17 16 16 16 16 17 17 17 17 17 17 17 17 16 16 17 17 17 18 19 19 19 19 19 19 18 18 17 17 17 16 16 16 16 16 16 16 15 15 15 15 15 15 15 15 15 15 15 15 15 15 15 15 15 15 15 15 15 14 14
28 28 29 29 30 30 30 30 30 30 30 29 29 28 27 27 26 25 25 24 24 23 22 21 20 20 19 19 18 18 17 16 16 16 16 17 17 17 17 17 17 18 19 19 18 18 18 18 18 18 19 19 19 20 19 19 19 19 19 19 20 21 21 21 22 22 21 20 19 19 18 18 18 18 18 18 18 18 18 18 18 18 18 18 18 18 18 18 18 18 18 18 18 18 18 18 18 18 18 18 19 19 19
29 30 30 31 31 32 32 32 32 32 32 32 31 30 30 29 28 28 27 26 26 25 24 23 22 21 20 19 19 18 17 17 17 17 17 17 18 18 18 18 19 20 21 20 19 19 19 19 19 19 20 21 21 21 22 22 22 22 22 22 23 23 23 23 23 23 22 21 20 19 19 19 19 19 19 20 20 20 20 20 20 20 20 20 20 20 20 20 20 20 20 20 20 20 20 20 20 20 20 20 21 21 21
31 32 33 33 34 34 34 34 34 34 34 34 33 32 32 31 30 30 29 29 28 27 26 25 23 22 21 20 19 19 18 18 18 18 17 18 18 19 19 20 21 21 21 20 20 20 20 20 20 20 21 22 22 23 23 24 24 24 24 24 24 25 25 24 24 23 22 22 22 22 22 21 21 21 22 22 22 22 22 22 22 22 22 22 22 22 22 21 21 21 21 20 20 20 20 20 20 20 20 20 20 21 21
33 34 35 35 35 36 36 36 36 36 35 35 35 34 33 33 32 32 31 30 30 28 27 26 25 24 22 21 21 20 20 19 19 19 18 18 19 19 20 21 22 22 21 21 21 21 21 21 21 22 22 22 23 24 24 25 25 25 26 26 26 26 26 25 25 24 23 23 24 24 24 24 24 24 24 24 24 24 24 24 24 24 24 24 23 23 23 22 22 22 21 21 21 20 20 20 20 20 20 20 20 20 20
35 36 36 36 37 37 37 37 37 37 36 36 36 35 35 34 34 33 33 32 31 30 29 27 26 25 24 23 23 22 21 21 21 20 20 20 20 21 22 23 23 23 23 22 22 21 21 21 22 22 23 23 24 24 25 25 26 27 27 27 27 27 27 27 26 26 25 26 26 26 26 26 26 26 26 26 26 26 25 25 25 25 25 24 24 24 24 23 23 23 22 22 21 21 21 20 20 20 20 20 20 20 21
36 36 37 37 37 38 37 37 37 37 37 37 36 36 35 35 35 34 34 33 32 31 30 28 27 25 25 24 24 24 23 22 22 22 22 22 22 22 23 24 25 25 25 24 23 22 22 23 23 24 24 24 25 25 25 26 27 28 29 28 28 28 29 29 29 29 29 29 29 29 29 29 29 28 28 28 28 28 28 27 27 26 26 26 25 25 24 24 24 23 23 22 22 22 21 21 21 20 20 20 20 21 22
37 37 38 38 38 38 38 38 38 38 38 37 37 36 36 36 35 35 34 33 33 32 30 29 27 26 25 24 24 24 24 24 23 23 23 23 23 23 24 26 26 26 26 24 24 24 24 25 26 26 26 26 26 26 26 27 28 29 29 29 30 31 32 32 32 32 32 32 32 32 32 32 32 31 31 31 31 31 30 30 29 28 28 27 27 26 25 25 24 24 23 23 22 22 21 21 21 21 20 20 21 22 24
38 38 38 39 39 39 39 39 39 39 38 38 37 37 37 36 35 35 34 34 33 31 30 29 28 27 26 25 25 24 24 25 25 24 24 24 24 25 25 26 27 28 28 27 26 26 27 28 29 28 27 27 27 27 28 28 28 29 30 31 32 33 33 34 34 34 35 35 35 35 35 35 35 34 34 34 33 33 33 32 31 31 30 29 28 27 26 26 25 24 24 23 22 22 21 21 20 20 20 21 22 24 26
38 39 39 39 39 39 39 39 39 39 39 39 38 38 37 36 36 35 35 34 33 32 30 30 28 27 26 26 26 25 25 26 26 26 25 25 25 26 26 26 27 28 29 29 30 30 31 31 30 30 29 28 28 29 29 30 30 31 31 32 33 34 35 36 36 37 37 37 38 38 37 37 37 36 36 35 34 34 33 33 33 32 31 31 30 29 27 26 25 24 23 23 22 21 21 20 20 19 19 19 21 23 26
39 39 39 39 40 40 40 40 40 40 39 39 39 38 38 37 37 36 35 35 34 33 32 30 29 28 28 27 27 27 26 26 27 28 27 27 27 27 28 28 28 28 29 30 31 32 32 33 33 32 31 31 30 30 30 31 32 32 33 34 34 35 36 37 38 38 38 39 39 38 38 38 37 37 36 35 34 34 33 33 32 32 32 31 30 29 28 27 25 24 23 22 21 21 20 19 19 19 18 18 19 21 23
39 39 40 40 40 40 40 40 40 40 40 40 39 39 39 38 38 37 37 36 35 34 33 32 31 30 29 28 28 28 28 28 28 29 29 29 29 30 30 29 29 30 30 30 31 32 33 34 34 34 33 33 32 32 32 32 33 34 34 35 36 37 37 38 38 38 39 39 39 39 38 38 37 37 36 35 35 34 33 32 31 31 30 30 29 28 28 26 25 24 23 21 21 20 19 19 18 18 18 17 18 19 21
40 40 40 40 41 41 41 40 41 41 41 40 40 40 40 39 39 39 38 37 37 35 34 33 32 31 30 30 30 30 30 30 30 30 31 31 31 32 31 31 31 31 31 31 32 33 33 34 35 35 36 36 35 35 34 34 35 36 36 37 38 38 39 39 39 39 39 39 39 39 38 38 37 37 36 35 34 33 32 31 30 29 28 27 27 27 26 26 25 24 23 22 21 20 19 18 18 17 17 17 17 17 18
40 41 41 41 41 41 41 41 41 41 42 42 41 41 41 41 40 40 39 39 38 37 35 34 33 32 31 31 31 31 31 32 32 32 32 32 32 32 32 32 32 32 32 32 33 34 35 35 36 36 37 38 38 38 37 37 37 38 38 39 39 39 39 39 39 39 39 39 39 38 38 37 37 36 35 34 33 32 30 29 28 27 26 26 25 25 25 25 25 25 25 24 23 21 19 18 18 18 17 17 17 16 17